Simultaneous Nadir Overpasses (SNOs) Predictions

Prediction of SNOs between GOES-17 and LANDSAT-8 Satellite Orbit:

Table of predicted SNOs for the next 14.0 days since TLE Epoch: 4/27/2024
Index Date Time (GOES-17) GOES-17 Lat,Lon LANDSAT-8 Lat,Lon Distance(km) Time Diff (sec)
1 04/28/2024 05:06:26 0.00,-104.70 0.11,-104.05 73.34 80
2 04/30/2024 04:54:13 0.00,-104.69 0.74,-101.08 409.50 80
3 04/30/2024 17:15:27 -0.00,-104.70 0.35,-106.24 176.06 80
4 05/02/2024 17:05:53 -0.00,-104.69 -0.33,-103.28 160.69 80
5 05/03/2024 05:27:16 0.00,-104.69 -0.79,-108.47 430.11 80
6 05/04/2024 16:53:37 -0.00,-104.69 -0.92,-100.31 497.98 80
7 05/05/2024 05:15:00 0.00,-104.68 -0.18,-105.50 92.69 80
8 05/07/2024 05:00:04 -0.00,-104.68 0.46,-102.53 245.14 80
9 05/07/2024 17:21:18 0.00,-104.69 0.65,-107.68 340.31 80
10 05/09/2024 17:09:01 0.01,-104.68 0.01,-104.70 2.32 80
